GSAT-19

Last updated on Jan. 20, 2021, 6:22 a.m. UTC

1 42747U 17031A   21019.89219372  .00000130  00000-0  00000-0 0  9994
2 42747   0.0567 103.2213 0001982 310.3217  75.0041  1.00273606 13346
UTC
Height (km)
Latitude
Longitude
Inclination
Orbital Period
UTC large
Height (km)
Speed (km/s)
/
Latitude / Longitude
Inclination (degrees)
Orbital Period (minutes)
Azimuth
Elevation
Range (km)
Doppler Factor
iOS Compass Heading
iOS Angle

Next 30 passes for location: Hong Kong

Rise time Rise Azimuth (degrees) Set time Set Azimuth (degrees) Duration Max altitude (degrees)

No matching passes for this satellites